sat.trackr.live / text

‹ back to catalog

STARLINK-34553

NORAD 64681 · 2025-139T

PAYLOAD ACTIVE UNKNOWN

§ Identity

Operator
Country
US
Launch date
2025-06-28
Launch site
AFETR
Launch vehicle
Mass (kg)
RCS (m²)

Purposes: comms

External: N2YO · Heavens-Above · Gunter

§ Orbital elements

Epoch: 2026-05-25T03:04:43.123296Z

Period
93.85 min
Inclination
53.1581°
Eccentricity
0.0001651
Mean motion
15.34422359 rev/d
Perigee alt
461.5 km
Apogee alt
463.8 km
Semi-major
6,840.8 km
B*
7.4335e-4
RAAN
130.8215°
Arg perigee
133.5262°
Mean anomaly
226.5878°
Rev number
5,200

§ Raw data

STARLINK-345531 64681U 25139T   26145.12827689  .00024840  00000+0  74335-3 0  99982 64681  53.1581 130.8215 0001651 133.5262 226.5878 15.34422359 52008

JSON: /api/v1/satellites/64681 · /tle

For live sub-satellite position, see the globe view (requires WebGL).

§ Visibility from observer

Set your observer location to see the next 7 days of passes ≥ 10°. The values pass through the URL so the page stays shareable.

No JS? Fill the form by hand. The geolocation button needs JavaScript.